Location: Beugnon
(47.6222°N, 3.7850°E)
Time: 00:33:43
(UTC+00:00)

Cosmos 1656 - Pass Details

Date: 09 April 2020
Orbit: 798 x 849 km, 71.1° (Epoch: 03 June)

Event Time Altitude Azimuth Distance (km) Brightness Sun altitude
Rises 21:24:24 0° 328° (NNW) 3,419 8.2 -26.2°
Reaches altitude 10° 21:26:57 10° 323° (NW) 2,475 7.1 -26.4°
Maximum altitude 21:32:22 48° 251° (WSW) 1,089 4.3 -27.0°
Enters shadow 21:33:11 45° 225° (SW) 1,137 4.2 -27.1°
